Regional Weather Roundup
Issued by NWS

Home | Current Version | Previous Version | Graphics & Text | Print | Product List | Glossary On
Versions: 1 2 3 4 5 6 7 8 9 10 11 12 13 14 15 16 17 18 19 20 21 22 23 24 25 26 27 28 29 30 31 32 33 34 35 36 37 38 39 40 41 42 43 44 45 46 47 48 49 50
000
ASUS43 KLSX 281407
RWRMO

WEATHER SUMMARY FOR MISSOURI
NATIONAL WEATHER SERVICE SPRINGFIELD MO
900 AM CDT FRI APR 28 2017

NOTE: "FAIR" INDICATES FEW OR NO CLOUDS BELOW 12,000 FEET WITH NO
       SIGNIFICANT WEATHER AND/OR OBSTRUCTIONS TO VISIBILITY.
       CURRENT SKY AND/OR WEATHER CONDITIONS ARE NOT AVAILABLE FOR
       CHILLICOTHE AND FARMINGTON.

MOZ001>031-035>038-043-044-053-054-281500-
...NORTHERN AND WESTERN MISSOURI...

CITY           SKY/WX    TMP DP  RH WIND       PRES   REMARKS
KANSAS CTY INT CLOUDY    52  51  97 E15       29.67R
KANSAS C DTWN  CLOUDY    54  52  93 E8        29.66S
LEE`S SUMMIT   CLOUDY    53  53 100 E8        29.68F
ST JOSEPH      LGT RAIN  48  48 100 E8        29.69R
CHILLICOTHE      N/A     50  49  96 NE8       29.75F
KIRKSVILLE     CLOUDY    46  44  93 E13       29.78F

$$
MOZ066>068-077>081-088>096-101>105-281500-
...SOUTHWEST MISSOURI...

CITY           SKY/WX    TMP DP  RH WIND       PRES   REMARKS
SPRINGFIELD    CLOUDY    56  54  93 SE9       29.71F
JOPLIN         LGT RAIN  58  55  90 SE8       29.66S
BRANSON        CLOUDY    54  54 100 E10       29.73F

$$
MOZ032>034-039>042-045>050-055>058-069>072-281500-
...CENTRAL MISSOURI...

CITY           SKY/WX    TMP DP  RH WIND       PRES   REMARKS
COLUMBIA       RAIN      53  53 100 SE10      29.76F FOG
JEFFERSON CITY LGT RAIN  57  52  83 E13       29.76F
ROLLA          LGT RAIN  55  53  93 SE15G25   29.79R
SEDALIA        LGT RAIN  55  55 100 SE7       29.73R
WHITEMAN AFB   LGT RAIN  54  54 100 E8        29.69S
OSAGE BEACH    LGT RAIN  56  54  93 S9        29.75F

$$
MOZ051-052-059>065-281500-
...EAST CENTRAL MISSOURI...

CITY           SKY/WX    TMP DP  RH WIND       PRES   REMARKS
ST LOUIS INTL  RAIN      56  51  84 SE10      29.86R
SPIRIT OF STL  RAIN      55  54  96 E5        29.84R FOG
ST CHARLES     LGT RAIN  54  53  97 SE8       29.86R FOG

$$
MOZ072>076-082>087-097>100-106>115-281500-
...SOUTH CENTRAL AND SOUTHEAST MISSOURI...

CITY           SKY/WX    TMP DP  RH WIND       PRES   REMARKS
CAPE GIRARDEAU CLOUDY    58  52  80 E10       29.84S
FARMINGTON     CLOUDY    55  51  86 SE6       29.87R
POPLAR BLUFF   CLOUDY    59  54  83 E6        29.82F
WEST PLAINS    CLOUDY    56  52  86 E6        29.82S

$$



USA.gov is the U.S. government's official web portal to all federal, state and local government web resources and services.